SCP
0 0 0 0 0 0 0 0 0 0 0 0 0 0 0 0 0 0 0 0 0 0 0 0 0 0 0 0 0 0 0 0 0 0 0 0 0 0 0 0 0 0 0 0 0 0 0 0 0 0 0 0 1 1
0 0 0 0 0 0 0 0 0 0 0 0 0 0 0 0 0 0 0 0 0 0 0 0 0 0 0 0 0 0 0 0 0 0 0 0 0 0 0 0 0 0 0 0 0 0 0 0 0 0 0 0 0 0
0 0 0 0 0 0 0 0 0 0 0 0 0 0 0 0 0 0 0 0 0 0 0 0 0 0 0 0 0 0 0 0 0 0 0 0 0 0 0 0 0 0 0 0 0 0 0 0 0 0 0 0 0 0
0 0 0 0 0 0 0 0 0 0 0 0 0 0 0 0 0 0 0 0 0 0 0 0 0 0 0 0 0 0 0 0 0 0 0 0 0 0 0 0 0 0 0 0 0 0 0 0 0 0 0 0 0 0
0 0 0 0 0 0 0 0 0 0 0 0 0 0 0 0 0 0 0 0 0 0 0 0 0 0 0 0 0 0 0 0 0 0 0 0 0 0 0 0 0 0 0 0 0 0 0 0 0 0 0 0 0 0
0 0 0 0 0 0 0 0 0 0 0 0 0 0 0 0 0 0 0 0 0 0 0 0 0 0 0 0 0 0 0 0 0 0 0 0 0 0 0 0 0 0 0 0 0 0 0 0 0 0 0 0 0 0
0 0 0 0 0 0 0 0 0 0 0 0 0 0 0 0 0 0 0 0 0 0 0 0 0 0 0 0 0 0 0 0 0 0 0 0 0 0 0 0 0 0 0 0 0 0 0 0 0 0 0 0 0 0
0 0 0 0 0 0 0 0 0 0 0 0 0 0 0 0 0 0 0 0 0 0 0 0 0 0 0 0 0 0 0 0 0 0 0 0 0 0 0 0 0 0 0 0 0 0 0 0 0 0 0 0 0 0
0 0 0 0 0 0 0 0 0 0 0 0 0 0 0 0 0 0 0 0 0 0 0 0 0 0 0 0 0 0 0 0 0 0 0 0 0 0 0 0 0 0 0 0 0 0 0 0 0 0 0 0 0 0
0 0 0 0 0 0 0 0 0 0 0 0 0 0 0 0 0 0 0 0 0 0 0 0 0 0 0 0 0 0 0 0 0 0 0 0 0 0 0 0 0 0 0 0 0 0 0 0 0 0 0 0 0 0
0 0 0 0 0 0 0 0 0 0 0 0 0 0 0 0 0 0 0 0 0 0 0 0 0 0 0 0 0 0 0 0 0 0 0 0 0 0 0 0 0 0 0 0 0 0 0 0 0 0 0 0 0 0
0 0 0 0 0 0 0 0 0 0 0 0 0 0 0 0 0 0 0 0 0 0 0 0 0 0 0 0 0 0 0 0 0 0 0 0 0 0 0 0 0 0 0 0 0 0 0 0 0 0 0 0 0 0
0 0 0 0 0 0 0 0 0 0 0 0 0 0 0 0 0 0 0 0 0 0 0 0 0 0 0 0 0 0 0 0 0 0 0 0 0 0 0 0 0 0 0 0 0 0 0 0 0 0 0 0 0 0
0 0 0 0 0 0 0 0 0 0 0 0 0 0 0 0 0 0 0 0 0 0 0 0 0 0 0 0 0 0 0 0 0 0 0 0 0 0 0 0 0 0 0 0 0 0 0 0 0 0 0 0 0 0
0 0 0 0 0 0 0 0 0 0 0 0 0 0 0 0 0 0 -0 0 0 0 0 0 0 0 0 0 0 0 0 0 0 0 0 0 0 0 0 0 0 0 0 0 0 0 0 0 0 0 0 -0 0 -0
0 0 0 0 0 0 0 0 0 0 0 0 0 0 0 0 0 0 0 0 0 0 0 0 0 0 0 0 0 0 0 0 0 0 0 0 0 0 0 0 0 0 0 0 0 0 0 0 0 -0 -0 0 0 -0
0 0 0 0 0 0 0 0 0 0 0 0 0 0 0 0 0 0 0 0 0 0 0 0 0 0 0 0 0 0 0 0 0 0 -0 0 0 0 0 0 0 0 0 0 0 -0 -0 -0 -0 -0 -0 -0 0 0
0 0 0 0 0 0 0 0 0 0 0 0 0 0 0 0 0 0 0 0 0 0 0 0 0 0 0 0 0 0 0 0 0 -0 0 0 0 0 0 0 0 0 -0 0 -0 -0 -0 -0 -0 0 0 0 0 0
0 0 0 0 0 0 0 0 0 0 0 0 0 0 0 0 0 0 0 0 0 0 0 0 0 0 0 0 0 0 0 0 0 0 0 0 0 0 0 0 0 -0 -0 -0 -0 -0 0 0 0 0 0 0 0 0
0 0 0 0 0 0 0 0 0 0 0 0 0 0 0 0 0 0 0 0 0 0 0 0 0 0 0 -0 -0 -0 0 -0 -0 -0 0 0 0 0 0 0 0 0 0 0 0 0 0 0 0 0 0 0 0 0
0 0 -0 0 0 0 0 0 0 0 -0 0 0 -0 0 0 0 0 0 0 0 0 0 0 0 0 -0 -0 0 0 -0 -0 0 -0 -0 -0 0 0 0 0 0 0 0 0 0 0 0 0 0 0 0 0 -0 -0
0 0 0 0 0 0 0 0 0 0 0 0 0 0 0 0 0 0 0 0 -0 0 0 0 0 0 0 0 0 0 -0 0 -0 -0 -0 0 0 0 0 0 0 0 0 0 0 0 0 0 0 0 0 0 0 0
0 0 0 0 0 0 0 0 0 0 0 0 0 0 0 -0 -0 -0 -0 -0 -0 -0 -0 -0 0 0 0 0 -0 -0 -0 -0 -0 -0 -0 0 0 0 0 0 0 0 0 0 0 0 0 0 0 0 0 0 -0 0
0 0 0 0 0 0 0 0 0 0 0 0 0 0 0 0 0 -0 -0 -0 -0 -0 -0 0 0 0 -0 -0 0 0 0 0 0 0 -0 0 0 0 0 0 0 0 0 0 0 0 0 0 0 0 -0 0 0 -0
0 0 0 -0 0 0 0 0 0 0 -0 -0 0 0 0 0 0 0 0 0 0 -0 0 0 -0 -0 0 0 0 0 0 0 0 0 0 0 0 0 0 0 0 0 0 0 0 0 0 -0 0 0 0 0 0 0
-0 0 -0 -0 -0 -0 -0 -0 -0 -0 -0 -0 -0 -0 -0 -0 -0 0 0 0 0 0 -0 -0 -0 0 0 0 0 0 0 0 0 0 0 0 0 0 0 0 0 0 0 0 0 0 0 -0 0 0 0 0 -0 -0
-0 -0 -0 -0 -0 -0 -0 0 -0 -0 -0 -0 -0 -0 -0 0 0 -0 -0 -0 -0 -0 0 0 0 0 0 0 0 0 0 0 0 0 0 0 0 0 0 0 0 0 0 -0 0 0 0 0 0 0 0 0 0 -0
-0 -0 0 0 0 0 0 0 0 0 0 0 0 0 0 -0 0 0 -0 -0 -0 0 0 0 0 0 0 0 0 0 0 0 0 0 0 0 0 0 0 0 -0 0 0 0 0 0 0 0 -0 -0 -0 -0 0 -0
0 0 0 0 0 0 0 0 0 0 0 0 -0 0 0 -0 -0 -0 -0 0 0 0 0 0 0 0 0 0 0 0 0 0 0 0 0 0 0 -0 0 0 0 0 0 0 0 0 0 -0 -0 -0 0 0 -0 -0
0 0 0 0 0 0 0 0 0 -0 -0 -0 0 0 0 0 -0 0 0 0 0 0 0 0 -0 0 0 0 0 0 0 0 -0 0 0 -0 -0 0 0 0 0 0 0 0 0 -0 -0 -0 0 0 0 -0 -0 -0
0 0 0 0 0 0 -0 0 -0 -0 0 -0 -0 0 0 0 0 0 0 0 0 0 0 0 0 0 0 0 0 0 0 0 0 0 0 -0 -0 -0 -0 -0 -0 -0 -0 0 0 0 0 0 0 0 0 -0 0 -0
0 0 0 0 0 0 0 0 0 -0 0 0 0 0 0 0 0 0 0 0 0 0 0 0 0 0 0 0 -0 0 0 0 0 0 0 0 0 -0 -0 -0 -0 -0 0 0 0 0 0 0 0 -0 -0 -0 -0 -0
0 0 0 0 0 0 0 0 -0 0 0 0 0 0 0 0 0 0 0 0 0 1 0 0 -0 -0 -0 0 0 0 0 0 -0 -0 -0 -0 0 0 0 0 0 0 -0 0 0 -0 -0 -0 0 0 -0 -0 -0 0
Wind_Speed_500mb
58 60 59 55 50 47 40 35 32 30 30 30 29 32 28 26 25 20 6 24 21 17 39 23 18 21 25 26 17 26 22 18 12 18 19 23 23 24 20 23 21 21 23 23 25 30 35 26 22 20 15 18 23 19
68 66 63 59 55 50 50 47 40 34 32 32 30 27 29 25 23 22 13 21 24 20 32 46 43 36 35 36 33 29 35 29 13 13 16 13 26 27 30 25 25 23 24 23 27 27 34 32 36 37 47 34 20 24
69 70 69 67 64 61 55 54 52 45 39 36 35 31 27 27 22 22 22 19 33 25 48 35 27 21 10 17 24 29 30 22 22 22 22 13 20 20 22 21 32 33 41 24 27 31 39 50 46 41 43 43 36 29
57 58 60 63 64 61 59 57 56 53 48 42 40 34 29 30 27 24 21 19 21 23 15 5 2 18 26 24 26 33 39 41 36 35 31 17 24 26 24 30 28 30 35 30 34 34 47 51 45 34 26 33 33 35
45 47 49 52 54 59 60 58 55 52 50 50 43 37 34 31 30 29 29 12 15 11 15 36 56 40 14 31 27 27 30 31 32 34 24 23 39 31 33 30 30 42 35 25 28 42 46 44 49 47 45 39 41 41
31 33 37 40 45 50 54 58 59 55 51 45 43 41 38 36 31 25 4 5 4 10 15 11 29 37 32 20 22 26 31 33 36 37 28 34 49 42 20 26 36 44 45 48 41 48 55 55 52 48 48 48 48 53
27 27 27 30 33 38 44 49 53 55 55 53 46 43 45 42 36 23 10 10 20 15 8 15 17 2 14 17 26 30 33 37 38 41 43 48 48 46 28 38 43 61 66 66 66 66 61 60 59 58 59 59 56 57
24 23 23 24 26 30 33 38 42 44 48 48 45 41 38 41 43 41 42 45 41 22 10 7 11 33 15 20 28 29 33 35 40 44 36 35 38 38 22 39 48 53 54 50 54 47 43 40 39 39 41 42 46 48
27 25 24 24 22 23 25 25 29 31 29 21 19 23 24 25 19 25 38 37 29 19 7 10 11 21 13 20 28 25 32 21 38 24 33 27 24 18 22 25 33 46 52 49 47 33 35 38 38 38 40 44 46 46
28 25 25 23 21 20 20 20 18 12 23 15 16 12 9 11 20 14 4 6 16 13 14 17 36 30 47 51 43 35 26 16 17 22 35 26 31 68 74 75 72 68 62 59 47 33 32 27 27 31 39 41 44 45
28 26 23 21 19 17 16 14 10 26 20 30 13 12 12 8 11 5 3 6 8 9 19 23 43 34 45 29 17 12 10 8 14 16 26 27 30 33 53 42 37 44 43 46 29 16 12 13 20 27 38 45 51 58
30 27 27 26 23 22 18 9 31 29 27 20 13 14 16 10 7 7 6 7 12 11 24 26 26 20 16 4 8 10 11 7 15 16 16 13 20 21 27 29 15 4 6 17 16 4 5 3 8 20 30 40 47 54
31 28 24 22 25 23 18 17 38 37 21 21 12 10 11 11 8 11 14 11 10 16 13 17 11 7 9 5 10 6 9 14 24 11 17 18 22 30 24 17 16 6 10 22 18 13 14 16 18 14 37 45 49 52
31 29 26 24 26 23 20 24 45 43 16 13 13 10 13 12 13 17 22 19 22 14 12 21 10 12 10 5 7 8 12 8 10 18 32 14 39 30 11 19 17 24 35 47 34 22 16 19 32 28 33 46 55 61
31 28 28 31 31 26 22 29 40 48 16 16 14 11 19 31 30 26 39 35 26 23 17 13 14 16 6 5 7 10 9 12 10 13 16 33 33 16 11 17 22 31 35 46 57 70 61 60 57 54 55 57 65 65
28 29 36 28 26 25 26 31 35 32 11 12 16 11 21 24 29 38 30 35 32 18 8 9 5 6 11 8 12 16 10 15 13 14 45 36 36 25 26 30 44 54 59 62 53 47 51 61 63 65 58 60 65 53
28 35 18 16 23 32 34 36 28 16 15 12 15 38 40 36 27 4 12 12 27 28 10 8 12 13 7 10 15 17 30 26 42 37 51 32 23 52 67 87 109 101 100 101 89 82 80 74 72 55 54 53 48 50
37 19 14 22 25 43 42 36 17 18 18 24 19 34 39 43 42 30 26 18 21 33 22 9 9 13 12 19 29 26 43 53 56 53 30 58 85 102 103 79 72 59 46 44 52 65 66 61 53 50 45 40 40 42
29 23 29 26 40 41 23 19 14 10 23 18 31 45 47 47 52 53 47 20 23 13 11 11 13 13 23 31 39 53 41 43 46 59 69 69 69 71 73 53 42 32 26 28 35 37 32 29 35 31 30 32 38 37
33 41 29 29 41 22 14 13 17 12 9 15 29 43 51 56 55 49 40 29 33 25 20 11 18 45 49 53 58 57 44 51 66 81 95 97 82 68 53 43 25 20 15 12 8 11 17 21 24 28 32 31 25 14
31 37 38 26 60 27 9 13 13 14 26 44 32 33 33 32 43 47 43 43 38 18 23 47 63 65 64 73 69 56 57 65 78 75 76 89 86 64 33 17 14 12 11 4 13 12 20 23 23 23 17 14 11 14
33 35 29 38 10 14 14 15 10 7 12 25 28 55 49 41 45 45 47 39 47 52 60 63 67 67 69 61 46 54 75 86 81 91 79 57 50 31 9 6 6 7 2 9 8 11 5 12 11 11 9 6 16 42
34 40 11 11 8 17 6 13 8 6 8 10 28 27 19 34 43 41 41 42 52 56 59 60 66 60 42 46 48 60 66 78 68 53 40 29 7 2 3 9 8 6 7 4 9 4 2 3 6 8 22 46 44 32
30 19 13 16 15 7 8 12 10 9 13 19 12 23 26 31 27 23 21 35 41 40 38 17 18 23 39 52 66 76 67 37 36 19 4 10 11 10 11 12 8 3 7 10 6 8 10 12 22 40 48 35 33 32
12 12 10 9 14 13 11 12 12 13 12 15 24 21 12 7 5 7 18 29 33 21 5 16 27 35 46 55 74 56 17 10 9 7 11 12 12 17 16 12 10 5 7 12 17 19 22 33 56 38 33 36 42 33
5 15 12 18 14 12 14 9 13 15 11 6 11 12 18 14 10 10 7 6 6 8 16 29 35 46 62 61 43 8 20 13 12 8 10 21 18 17 12 9 11 13 17 19 27 51 60 40 31 35 35 38 33 37
7 12 15 18 11 11 8 13 16 6 8 11 9 17 10 8 10 5 6 6 8 19 31 37 45 63 53 18 16 20 9 9 10 11 10 12 16 20 27 27 29 30 37 48 38 29 25 29 35 36 33 33 35 35
12 9 13 23 17 22 7 7 11 18 19 21 9 10 9 7 3 2 3 21 26 34 48 55 37 16 15 28 25 11 9 13 21 27 30 29 27 25 27 27 24 31 34 30 24 35 34 36 35 34 37 36 38 38
16 21 32 19 25 23 20 11 7 14 13 3 4 7 7 17 12 30 47 45 41 48 34 10 15 19 24 20 15 27 25 20 26 32 35 32 33 34 30 38 39 32 29 23 10 26 28 29 30 34 35 39 41 37
10 19 9 9 12 10 15 26 15 6 3 4 7 16 26 33 41 42 48 40 29 16 12 21 28 28 13 9 28 28 25 30 35 32 35 33 31 32 34 33 32 30 30 29 30 31 32 37 38 38 37 36 37 31
20 24 11 15 12 26 34 15 6 10 14 16 16 22 23 30 49 17 10 6 10 12 14 20 17 11 9 21 27 15 34 39 33 31 35 34 33 32 32 30 28 28 27 30 33 36 37 36 35 33 30 28 22 29
16 18 17 13 13 9 5 8 7 12 16 15 14 17 10 8 10 9 3 2 9 11 23 21 7 33 46 26 42 28 33 36 35 32 33 36 31 31 31 32 32 34 35 36 34 32 30 28 28 29 23 21 22 29
15 14 9 12 3 5 3 4 4 4 7 8 8 14 15 9 9 4 9 17 20 20 22 26 26 42 43 30 36 40 39 37 39 39 37 38 37 37 37 36 34 35 35 34 31 32 30 25 25 22 22 21 18 15
Wind_Direction_500mb
264 267 271 272 268 272 279 287 295 300 308 315 328 342 341 342 348 11 345 341 2 306 292 302 311 295 297 289 280 305 323 266 259 264 265 275 276 280 294 275 291 269 275 275 271 261 267 14 334 311 356 337 351 359
264 264 265 265 267 267 265 271 279 286 295 301 308 319 339 336 337 341 332 320 321 289 266 295 286 275 263 261 278 282 284 301 305 321 319 331 314 306 300 283 277 263 257 272 279 285 302 315 325 331 335 331 302 311
263 263 264 264 263 263 264 260 265 272 279 288 294 302 316 337 331 330 328 345 325 304 301 276 262 214 255 264 238 262 266 299 302 306 320 298 276 291 281 285 303 301 302 298 295 286 288 296 304 311 308 312 314 295
264 264 262 261 261 260 258 259 260 263 268 273 281 288 296 308 328 325 315 306 319 301 282 32 303 278 293 265 248 251 260 272 277 275 271 272 274 290 284 294 295 292 306 297 294 294 296 290 285 293 318 324 318 336
266 265 264 261 259 256 255 256 256 260 266 265 268 275 281 286 300 315 314 296 291 299 312 302 300 292 293 236 257 253 254 263 269 265 251 254 263 275 276 277 267 271 273 273 280 297 298 298 299 301 299 296 297 299
273 272 269 266 261 259 257 255 255 256 258 261 262 265 272 276 286 309 286 196 193 320 308 304 303 282 272 256 256 256 255 258 251 257 261 263 265 262 268 268 276 276 278 286 294 303 300 301 297 281 283 286 286 289
275 277 277 274 270 266 260 257 255 253 254 258 259 262 263 263 262 244 245 222 222 317 282 298 292 266 217 248 267 264 258 252 251 264 257 260 262 266 272 270 271 275 280 284 284 284 281 282 285 287 291 285 284 279
277 282 285 286 284 275 268 264 261 255 250 254 260 258 264 268 259 254 256 254 265 284 228 268 271 284 202 261 276 275 254 252 245 249 261 265 271 264 261 260 275 275 274 280 279 271 278 284 285 285 286 288 288 286
270 277 285 286 292 291 279 271 264 255 241 237 248 250 255 260 253 246 250 254 247 214 219 252 264 290 236 268 289 280 280 268 264 257 254 251 242 236 253 251 290 299 295 287 276 279 289 290 287 288 287 285 283 281
265 272 281 280 285 290 288 279 269 219 192 204 213 210 225 214 231 256 241 208 190 200 223 249 246 253 264 279 282 287 271 256 260 252 269 239 249 253 258 260 264 272 271 268 271 270 286 306 311 314 312 312 300 284
261 265 271 277 275 287 293 282 188 158 164 184 196 201 208 175 150 187 197 237 184 231 222 242 240 253 257 251 271 259 270 296 282 274 256 261 266 265 266 276 286 280 269 256 250 257 264 275 288 301 301 301 304 312
255 262 266 263 266 275 273 236 172 167 183 191 196 179 172 187 197 211 196 197 228 234 214 226 241 227 254 182 226 264 274 237 251 274 280 259 269 332 315 306 337 21 225 254 256 205 251 318 334 308 298 298 303 313
261 265 267 259 265 267 254 211 188 169 187 196 193 171 181 177 196 204 188 214 224 203 237 194 203 211 179 226 248 264 255 247 287 256 255 265 298 298 254 206 158 88 318 272 253 243 247 281 273 311 305 300 299 306
251 254 255 252 256 251 222 202 188 178 175 185 188 212 211 185 223 204 210 216 215 241 221 206 184 210 196 175 280 234 237 251 254 256 266 310 330 328 217 199 205 232 244 276 308 302 272 301 288 292 292 303 298 295
244 246 253 252 240 232 206 200 196 189 206 209 209 230 208 230 230 214 229 254 251 243 201 202 140 233 105 235 221 258 262 248 247 254 283 297 326 309 221 215 269 278 271 277 279 268 275 269 279 297 293 293 293 277
240 253 252 254 230 215 198 197 194 186 234 232 225 255 243 220 237 245 244 255 247 213 182 87 145 228 217 206 220 232 233 232 265 318 319 22 37 29 2 328 306 293 285 287 263 250 257 273 286 287 282 279 277 268
229 241 252 232 216 206 194 187 181 207 221 230 221 237 265 294 282 251 307 284 182 180 191 128 215 208 243 242 245 240 249 270 280 328 334 334 330 325 316 305 293 283 276 264 259 266 270 272 277 276 269 270 267 267
229 235 232 223 198 180 188 185 207 215 233 232 238 238 238 249 269 287 281 241 202 234 148 188 288 230 227 245 253 277 301 314 318 325 357 323 318 310 307 308 312 308 300 290 275 261 267 275 273 265 267 260 255 258
219 220 229 205 185 172 171 202 224 241 224 234 236 243 251 254 259 256 268 263 250 240 173 162 231 243 235 259 267 272 289 329 328 316 305 309 312 312 313 321 321 316 309 292 278 269 264 253 252 244 237 234 234 248
218 216 211 211 202 185 189 206 202 253 243 236 231 240 240 246 254 262 260 252 226 197 213 227 235 251 269 284 295 302 320 324 317 317 308 311 314 317 316 317 308 320 328 324 255 220 225 229 218 220 224 228 234 236
210 215 207 189 186 216 218 183 194 231 235 244 267 247 258 259 249 244 247 235 201 214 231 239 251 263 271 276 282 293 305 298 299 298 295 300 307 312 314 285 289 298 303 182 132 164 182 183 189 202 216 209 260 303
203 196 194 192 160 197 245 222 247 259 242 253 247 232 247 244 244 245 246 241 232 236 237 248 253 260 264 269 280 291 292 293 296 301 301 303 302 305 314 277 237 276 265 190 156 150 149 126 161 184 216 177 153 135
176 174 145 136 171 203 209 192 199 226 255 252 237 238 244 249 249 249 244 249 254 250 252 256 256 258 264 275 282 285 292 299 297 296 301 303 259 188 199 161 204 228 292 97 82 145 121 135 133 157 144 142 138 130
159 158 168 174 204 207 182 195 202 236 250 250 255 258 259 269 269 261 255 246 251 262 260 236 248 272 278 281 293 299 306 301 298 287 243 171 180 180 165 177 191 298 72 97 125 133 121 117 123 134 135 136 137 138
161 163 183 201 196 202 205 181 204 218 236 238 236 248 274 279 259 240 249 252 259 256 290 291 295 295 297 295 302 304 279 264 190 190 201 196 163 148 151 152 189 159 124 137 131 125 121 123 125 121 120 133 110 112
198 205 205 198 186 210 197 206 205 221 250 259 246 241 234 237 251 258 270 286 243 241 291 296 299 302 296 298 296 273 169 172 240 232 184 174 173 167 168 160 150 135 134 134 136 127 128 130 134 132 128 134 127 136
225 208 201 218 209 213 219 237 242 252 220 222 230 215 201 224 238 235 141 68 345 308 295 291 289 291 291 293 159 160 148 91 88 170 178 154 162 148 130 124 115 115 124 129 130 133 137 133 132 140 135 142 143 137
246 223 203 189 205 215 243 226 216 202 211 242 203 175 208 227 310 99 217 313 321 283 281 288 289 255 206 177 173 203 178 144 137 119 117 117 124 123 111 126 126 141 132 129 145 144 126 128 128 129 132 135 132 127
222 215 185 196 209 208 228 236 244 239 233 294 215 243 258 267 287 292 298 302 288 294 298 259 196 194 191 199 187 155 158 158 159 144 129 124 117 112 111 109 107 113 126 132 123 130 140 139 135 130 131 129 126 128
224 194 202 213 211 227 237 230 277 341 339 286 296 290 285 278 283 294 296 287 281 269 232 217 209 217 208 164 184 179 170 151 146 134 119 118 124 126 125 124 125 125 125 123 119 117 120 121 124 127 127 130 129 127
167 177 190 212 234 233 247 294 301 280 281 283 282 283 291 304 313 312 274 232 208 234 229 201 188 163 169 166 98 124 125 122 128 128 120 119 119 121 121 120 121 122 122 123 124 125 131 129 129 129 128 122 127 134
189 199 217 245 229 102 12 327 309 264 263 262 260 264 280 282 277 301 346 118 107 125 129 116 101 102 125 148 128 127 123 120 118 119 122 116 116 119 119 117 117 116 117 122 125 124 125 123 119 117 122 136 131 111
199 195 205 239 277 10 16 339 254 289 240 235 233 229 221 224 265 326 145 116 92 109 117 103 125 124 140 105 105 107 111 109 110 111 114 118 119 120 119 119 122 125 127 122 120 120 116 117 122 125 118 119 118 115
Wind_Speed_850mb
58 60 59 55 50 47 40 35 32 30 30 30 29 32 28 26 25 20 6 24 21 17 39 23 18 21 25 26 17 26 22 18 12 18 19 23 23 24 20 23 21 21 23 23 25 30 35 26 22 20 15 18 23 19
68 66 63 59 55 50 50 47 40 34 32 32 30 27 29 25 23 22 13 21 24 20 32 46 43 36 35 36 33 29 35 29 13 13 16 13 26 27 30 25 25 23 24 23 27 27 34 32 36 37 47 34 20 24
69 70 69 67 64 61 55 54 52 45 39 36 35 31 27 27 22 22 22 19 33 25 48 35 27 21 10 17 24 29 30 22 22 22 22 13 20 20 22 21 32 33 41 24 27 31 39 50 46 41 43 43 36 29
57 58 60 63 64 61 59 57 56 53 48 42 40 34 29 30 27 24 21 19 21 23 15 5 2 18 26 24 26 33 39 41 36 35 31 17 24 26 24 30 28 30 35 30 34 34 47 51 45 34 26 33 33 35
45 47 49 52 54 59 60 58 55 52 50 50 43 37 34 31 30 29 29 12 15 11 15 36 56 40 14 31 27 27 30 31 32 34 24 23 39 31 33 30 30 42 35 25 28 42 46 44 49 47 45 39 41 41
31 33 37 40 45 50 54 58 59 55 51 45 43 41 38 36 31 25 4 5 4 10 15 11 29 37 32 20 22 26 31 33 36 37 28 34 49 42 20 26 36 44 45 48 41 48 55 55 52 48 48 48 48 53
27 27 27 30 33 38 44 49 53 55 55 53 46 43 45 42 36 23 10 10 20 15 8 15 17 2 14 17 26 30 33 37 38 41 43 48 48 46 28 38 43 61 66 66 66 66 61 60 59 58 59 59 56 57
24 23 23 24 26 30 33 38 42 44 48 48 45 41 38 41 43 41 42 45 41 22 10 7 11 33 15 20 28 29 33 35 40 44 36 35 38 38 22 39 48 53 54 50 54 47 43 40 39 39 41 42 46 48
27 25 24 24 22 23 25 25 29 31 29 21 19 23 24 25 19 25 38 37 29 19 7 10 11 21 13 20 28 25 32 21 38 24 33 27 24 18 22 25 33 46 52 49 47 33 35 38 38 38 40 44 46 46
28 25 25 23 21 20 20 20 18 12 23 15 16 12 9 11 20 14 4 6 16 13 14 17 36 30 47 51 43 35 26 16 17 22 35 26 31 68 74 75 72 68 62 59 47 33 32 27 27 31 39 41 44 45
28 26 23 21 19 17 16 14 10 26 20 30 13 12 12 8 11 5 3 6 8 9 19 23 43 34 45 29 17 12 10 8 14 16 26 27 30 33 53 42 37 44 43 46 29 16 12 13 20 27 38 45 51 58
30 27 27 26 23 22 18 9 31 29 27 20 13 14 16 10 7 7 6 7 12 11 24 26 26 20 16 4 8 10 11 7 15 16 16 13 20 21 27 29 15 4 6 17 16 4 5 3 8 20 30 40 47 54
31 28 24 22 25 23 18 17 38 37 21 21 12 10 11 11 8 11 14 11 10 16 13 17 11 7 9 5 10 6 9 14 24 11 17 18 22 30 24 17 16 6 10 22 18 13 14 16 18 14 37 45 49 52
31 29 26 24 26 23 20 24 45 43 16 13 13 10 13 12 13 17 22 19 22 14 12 21 10 12 10 5 7 8 12 8 10 18 32 14 39 30 11 19 17 24 35 47 34 22 16 19 32 28 33 46 55 61
31 28 28 31 31 26 22 29 40 48 16 16 14 11 19 31 30 26 39 35 26 23 17 13 14 16 6 5 7 10 9 12 10 13 16 33 33 16 11 17 22 31 35 46 57 70 61 60 57 54 55 57 65 65
28 29 36 28 26 25 26 31 35 32 11 12 16 11 21 24 29 38 30 35 32 18 8 9 5 6 11 8 12 16 10 15 13 14 45 36 36 25 26 30 44 54 59 62 53 47 51 61 63 65 58 60 65 53
28 35 18 16 23 32 34 36 28 16 15 12 15 38 40 36 27 4 12 12 27 28 10 8 12 13 7 10 15 17 30 26 42 37 51 32 23 52 67 87 109 101 100 101 89 82 80 74 72 55 54 53 48 50
37 19 14 22 25 43 42 36 17 18 18 24 19 34 39 43 42 30 26 18 21 33 22 9 9 13 12 19 29 26 43 53 56 53 30 58 85 102 103 79 72 59 46 44 52 65 66 61 53 50 45 40 40 42
29 23 29 26 40 41 23 19 14 10 23 18 31 45 47 47 52 53 47 20 23 13 11 11 13 13 23 31 39 53 41 43 46 59 69 69 69 71 73 53 42 32 26 28 35 37 32 29 35 31 30 32 38 37
33 41 29 29 41 22 14 13 17 12 9 15 29 43 51 56 55 49 40 29 33 25 20 11 18 45 49 53 58 57 44 51 66 81 95 97 82 68 53 43 25 20 15 12 8 11 17 21 24 28 32 31 25 14
31 37 38 26 60 27 9 13 13 14 26 44 32 33 33 32 43 47 43 43 38 18 23 47 63 65 64 73 69 56 57 65 78 75 76 89 86 64 33 17 14 12 11 4 13 12 20 23 23 23 17 14 11 14
33 35 29 38 10 14 14 15 10 7 12 25 28 55 49 41 45 45 47 39 47 52 60 63 67 67 69 61 46 54 75 86 81 91 79 57 50 31 9 6 6 7 2 9 8 11 5 12 11 11 9 6 16 42
34 40 11 11 8 17 6 13 8 6 8 10 28 27 19 34 43 41 41 42 52 56 59 60 66 60 42 46 48 60 66 78 68 53 40 29 7 2 3 9 8 6 7 4 9 4 2 3 6 8 22 46 44 32
30 19 13 16 15 7 8 12 10 9 13 19 12 23 26 31 27 23 21 35 41 40 38 17 18 23 39 52 66 76 67 37 36 19 4 10 11 10 11 12 8 3 7 10 6 8 10 12 22 40 48 35 33 32
12 12 10 9 14 13 11 12 12 13 12 15 24 21 12 7 5 7 18 29 33 21 5 16 27 35 46 55 74 56 17 10 9 7 11 12 12 17 16 12 10 5 7 12 17 19 22 33 56 38 33 36 42 33
5 15 12 18 14 12 14 9 13 15 11 6 11 12 18 14 10 10 7 6 6 8 16 29 35 46 62 61 43 8 20 13 12 8 10 21 18 17 12 9 11 13 17 19 27 51 60 40 31 35 35 38 33 37
7 12 15 18 11 11 8 13 16 6 8 11 9 17 10 8 10 5 6 6 8 19 31 37 45 63 53 18 16 20 9 9 10 11 10 12 16 20 27 27 29 30 37 48 38 29 25 29 35 36 33 33 35 35
12 9 13 23 17 22 7 7 11 18 19 21 9 10 9 7 3 2 3 21 26 34 48 55 37 16 15 28 25 11 9 13 21 27 30 29 27 25 27 27 24 31 34 30 24 35 34 36 35 34 37 36 38 38
16 21 32 19 25 23 20 11 7 14 13 3 4 7 7 17 12 30 47 45 41 48 34 10 15 19 24 20 15 27 25 20 26 32 35 32 33 34 30 38 39 32 29 23 10 26 28 29 30 34 35 39 41 37
10 19 9 9 12 10 15 26 15 6 3 4 7 16 26 33 41 42 48 40 29 16 12 21 28 28 13 9 28 28 25 30 35 32 35 33 31 32 34 33 32 30 30 29 30 31 32 37 38 38 37 36 37 31
20 24 11 15 12 26 34 15 6 10 14 16 16 22 23 30 49 17 10 6 10 12 14 20 17 11 9 21 27 15 34 39 33 31 35 34 33 32 32 30 28 28 27 30 33 36 37 36 35 33 30 28 22 29
16 18 17 13 13 9 5 8 7 12 16 15 14 17 10 8 10 9 3 2 9 11 23 21 7 33 46 26 42 28 33 36 35 32 33 36 31 31 31 32 32 34 35 36 34 32 30 28 28 29 23 21 22 29
15 14 9 12 3 5 3 4 4 4 7 8 8 14 15 9 9 4 9 17 20 20 22 26 26 42 43 30 36 40 39 37 39 39 37 38 37 37 37 36 34 35 35 34 31 32 30 25 25 22 22 21 18 15
Wind_Direction_850mb
264 267 271 272 268 272 279 287 295 300 308 315 328 342 341 342 348 11 345 341 2 306 292 302 311 295 297 289 280 305 323 266 259 264 265 275 276 280 294 275 291 269 275 275 271 261 267 14 334 311 356 337 351 359
264 264 265 265 267 267 265 271 279 286 295 301 308 319 339 336 337 341 332 320 321 289 266 295 286 275 263 261 278 282 284 301 305 321 319 331 314 306 300 283 277 263 257 272 279 285 302 315 325 331 335 331 302 311
263 263 264 264 263 263 264 260 265 272 279 288 294 302 316 337 331 330 328 345 325 304 301 276 262 214 255 264 238 262 266 299 302 306 320 298 276 291 281 285 303 301 302 298 295 286 288 296 304 311 308 312 314 295
264 264 262 261 261 260 258 259 260 263 268 273 281 288 296 308 328 325 315 306 319 301 282 32 303 278 293 265 248 251 260 272 277 275 271 272 274 290 284 294 295 292 306 297 294 294 296 290 285 293 318 324 318 336
266 265 264 261 259 256 255 256 256 260 266 265 268 275 281 286 300 315 314 296 291 299 312 302 300 292 293 236 257 253 254 263 269 265 251 254 263 275 276 277 267 271 273 273 280 297 298 298 299 301 299 296 297 299
273 272 269 266 261 259 257 255 255 256 258 261 262 265 272 276 286 309 286 196 193 320 308 304 303 282 272 256 256 256 255 258 251 257 261 263 265 262 268 268 276 276 278 286 294 303 300 301 297 281 283 286 286 289
275 277 277 274 270 266 260 257 255 253 254 258 259 262 263 263 262 244 245 222 222 317 282 298 292 266 217 248 267 264 258 252 251 264 257 260 262 266 272 270 271 275 280 284 284 284 281 282 285 287 291 285 284 279
277 282 285 286 284 275 268 264 261 255 250 254 260 258 264 268 259 254 256 254 265 284 228 268 271 284 202 261 276 275 254 252 245 249 261 265 271 264 261 260 275 275 274 280 279 271 278 284 285 285 286 288 288 286
270 277 285 286 292 291 279 271 264 255 241 237 248 250 255 260 253 246 250 254 247 214 219 252 264 290 236 268 289 280 280 268 264 257 254 251 242 236 253 251 290 299 295 287 276 279 289 290 287 288 287 285 283 281
265 272 281 280 285 290 288 279 269 219 192 204 213 210 225 214 231 256 241 208 190 200 223 249 246 253 264 279 282 287 271 256 260 252 269 239 249 253 258 260 264 272 271 268 271 270 286 306 311 314 312 312 300 284
261 265 271 277 275 287 293 282 188 158 164 184 196 201 208 175 150 187 197 237 184 231 222 242 240 253 257 251 271 259 270 296 282 274 256 261 266 265 266 276 286 280 269 256 250 257 264 275 288 301 301 301 304 312
255 262 266 263 266 275 273 236 172 167 183 191 196 179 172 187 197 211 196 197 228 234 214 226 241 227 254 182 226 264 274 237 251 274 280 259 269 332 315 306 337 21 225 254 256 205 251 318 334 308 298 298 303 313
261 265 267 259 265 267 254 211 188 169 187 196 193 171 181 177 196 204 188 214 224 203 237 194 203 211 179 226 248 264 255 247 287 256 255 265 298 298 254 206 158 88 318 272 253 243 247 281 273 311 305 300 299 306
251 254 255 252 256 251 222 202 188 178 175 185 188 212 211 185 223 204 210 216 215 241 221 206 184 210 196 175 280 234 237 251 254 256 266 310 330 328 217 199 205 232 244 276 308 302 272 301 288 292 292 303 298 295
244 246 253 252 240 232 206 200 196 189 206 209 209 230 208 230 230 214 229 254 251 243 201 202 140 233 105 235 221 258 262 248 247 254 283 297 326 309 221 215 269 278 271 277 279 268 275 269 279 297 293 293 293 277
240 253 252 254 230 215 198 197 194 186 234 232 225 255 243 220 237 245 244 255 247 213 182 87 145 228 217 206 220 232 233 232 265 318 319 22 37 29 2 328 306 293 285 287 263 250 257 273 286 287 282 279 277 268
229 241 252 232 216 206 194 187 181 207 221 230 221 237 265 294 282 251 307 284 182 180 191 128 215 208 243 242 245 240 249 270 280 328 334 334 330 325 316 305 293 283 276 264 259 266 270 272 277 276 269 270 267 267
229 235 232 223 198 180 188 185 207 215 233 232 238 238 238 249 269 287 281 241 202 234 148 188 288 230 227 245 253 277 301 314 318 325 357 323 318 310 307 308 312 308 300 290 275 261 267 275 273 265 267 260 255 258
219 220 229 205 185 172 171 202 224 241 224 234 236 243 251 254 259 256 268 263 250 240 173 162 231 243 235 259 267 272 289 329 328 316 305 309 312 312 313 321 321 316 309 292 278 269 264 253 252 244 237 234 234 248
218 216 211 211 202 185 189 206 202 253 243 236 231 240 240 246 254 262 260 252 226 197 213 227 235 251 269 284 295 302 320 324 317 317 308 311 314 317 316 317 308 320 328 324 255 220 225 229 218 220 224 228 234 236
210 215 207 189 186 216 218 183 194 231 235 244 267 247 258 259 249 244 247 235 201 214 231 239 251 263 271 276 282 293 305 298 299 298 295 300 307 312 314 285 289 298 303 182 132 164 182 183 189 202 216 209 260 303
203 196 194 192 160 197 245 222 247 259 242 253 247 232 247 244 244 245 246 241 232 236 237 248 253 260 264 269 280 291 292 293 296 301 301 303 302 305 314 277 237 276 265 190 156 150 149 126 161 184 216 177 153 135
176 174 145 136 171 203 209 192 199 226 255 252 237 238 244 249 249 249 244 249 254 250 252 256 256 258 264 275 282 285 292 299 297 296 301 303 259 188 199 161 204 228 292 97 82 145 121 135 133 157 144 142 138 130
159 158 168 174 204 207 182 195 202 236 250 250 255 258 259 269 269 261 255 246 251 262 260 236 248 272 278 281 293 299 306 301 298 287 243 171 180 180 165 177 191 298 72 97 125 133 121 117 123 134 135 136 137 138
161 163 183 201 196 202 205 181 204 218 236 238 236 248 274 279 259 240 249 252 259 256 290 291 295 295 297 295 302 304 279 264 190 190 201 196 163 148 151 152 189 159 124 137 131 125 121 123 125 121 120 133 110 112
198 205 205 198 186 210 197 206 205 221 250 259 246 241 234 237 251 258 270 286 243 241 291 296 299 302 296 298 296 273 169 172 240 232 184 174 173 167 168 160 150 135 134 134 136 127 128 130 134 132 128 134 127 136
225 208 201 218 209 213 219 237 242 252 220 222 230 215 201 224 238 235 141 68 345 308 295 291 289 291 291 293 159 160 148 91 88 170 178 154 162 148 130 124 115 115 124 129 130 133 137 133 132 140 135 142 143 137
246 223 203 189 205 215 243 226 216 202 211 242 203 175 208 227 310 99 217 313 321 283 281 288 289 255 206 177 173 203 178 144 137 119 117 117 124 123 111 126 126 141 132 129 145 144 126 128 128 129 132 135 132 127
222 215 185 196 209 208 228 236 244 239 233 294 215 243 258 267 287 292 298 302 288 294 298 259 196 194 191 199 187 155 158 158 159 144 129 124 117 112 111 109 107 113 126 132 123 130 140 139 135 130 131 129 126 128
224 194 202 213 211 227 237 230 277 341 339 286 296 290 285 278 283 294 296 287 281 269 232 217 209 217 208 164 184 179 170 151 146 134 119 118 124 126 125 124 125 125 125 123 119 117 120 121 124 127 127 130 129 127
167 177 190 212 234 233 247 294 301 280 281 283 282 283 291 304 313 312 274 232 208 234 229 201 188 163 169 166 98 124 125 122 128 128 120 119 119 121 121 120 121 122 122 123 124 125 131 129 129 129 128 122 127 134
189 199 217 245 229 102 12 327 309 264 263 262 260 264 280 282 277 301 346 118 107 125 129 116 101 102 125 148 128 127 123 120 118 119 122 116 116 119 119 117 117 116 117 122 125 124 125 123 119 117 122 136 131 111
199 195 205 239 277 10 16 339 254 289 240 235 233 229 221 224 265 326 145 116 92 109 117 103 125 124 140 105 105 107 111 109 110 111 114 118 119 120 119 119 122 125 127 122 120 120 116 117 122 125 118 119 118 115